Погода в Кузьминке

Россия / Алтайский край     51°18′48″N   81°56′33″E
темп.,
°C
ветер,
м/с
пор.,
м/с
влажн.,
%
обл.,
%
осадки,
мм/ч
давл.,
гПа
погр.,
м
25 января, вт
вт2501:00−26св1110099 0.0 10409
04:00−27юв1110079 0.0 10409
07:00−29ююв2110086 0.0 10419
10:00−28ююв2210095 0.0 104115
13:00−22ююз229979 0.1 103995
16:00−20ююз229753 0.0 103883
19:00−24ююв2210045 0.0 103814
22:00−25ююв2299100 0.0 103824
26 января, ср
ср2601:00−22ю3596100 0.0 103670
04:00−19ю3992100 0.0 1034148
07:00−18ю41090100 0.0 1033159
10:00−15ю41585100 0.0 1032336
13:00−13ю71679100 0.0 1032490
16:00−11ю71479100 0.0 1031552
19:00−11ю71393100 0.6 1031544
22:00−11ю61395100 2.0 1032575
27 января, чт
чт2701:00−11ю61195100 3.3 1032526
04:00−11ю5995100 0.9 1034438
07:00−13ю3696100 1.3 1035200
10:00−14ю249784 0.3 103788
13:00−12ююз259690 0.4 1038252
16:00−13юз239791 0.1 103867
19:00−19юв1110097 0.1 10409
22:00−22вюв1110092 0.0 10419
28 января, пт
пт2801:00−23юв1110097 0.0 10419
04:00−23вюв1110085 0.0 10409
07:00−23вюв1110062 0.0 10409
10:00−23вюв1110060 0.0 10409
13:00−15с00935 0.0 103740
16:00−14ссв119610 0.0 103611
19:00−21св3310056 0.0 103616
22:00−24в1110055 0.0 10369
29 января, сб
сб2901:00−24вюв119911 0.0 10369
04:00−24юв119712 0.0 10359
07:00−24юв119612 0.0 10359
10:00−23юв11959 0.0 10359
13:00−14ю12895 0.0 103455
16:00−13ююв119281 0.0 103410
19:00−18вюв119110 0.0 10359
22:00−19юв119597 0.0 10349